| time (UTC) | temp F | wind direction | speed knots | gust knots | rain 1hr in | rain 24hr in | rain mn in | humidity % | barometer mb |
| 20260506164221 | 45 | 129 | 0.9 | 5.2 | 0.05 | 0.44 | 0.30 | 94 | 1009.1 |
| 20260506163715 | 45 | 128 | 1.7 | 5.2 | 0.04 | 0.43 | 0.29 | 94 | 1009.0 |
| 20260506163216 | 45 | 143 | 0.9 | 3.5 | 0.03 | 0.43 | 0.28 | 93 | 1009.0 |
| 20260506162225 | 45 | 140 | 0.0 | 3.5 | 0.02 | 0.42 | 0.28 | 93 | 1009.0 |
| 20260506161735 | 45 | 133 | 0.9 | 3.5 | 0.02 | 0.42 | 0.28 | 93 | 1009.0 |
| 20260506161217 | 45 | 156 | 0.9 | 3.5 | 0.02 | 0.42 | 0.28 | 93 | 1009.1 |
| 20260506160242 | 45 | 96 | 0.9 | 3.5 | 0.02 | 0.41 | 0.27 | 93 | 1009.1 |
| 20260506155707 | 45 | 134 | 0.9 | 4.3 | 0.02 | 0.40 | 0.26 | 93 | 1009.1 |
| 20260506155219 | 45 | 142 | 0.9 | 4.3 | 0.02 | 0.40 | 0.26 | 93 | 1009.1 |
| 20260506154724 | 45 | 146 | 0.9 | 5.2 | 0.02 | 0.39 | 0.25 | 93 | 1009.1 |
| 20260506154208 | 45 | 165 | 1.7 | 5.2 | 0.02 | 0.39 | 0.25 | 93 | 1009.0 |
| 20260506153218 | 45 | 120 | 2.6 | 5.2 | 0.03 | 0.39 | 0.25 | 92 | 1009.0 |
| 20260506152717 | 45 | 130 | 1.7 | 4.3 | 0.03 | 0.39 | 0.25 | 92 | 1009.0 |
| 20260506152224 | 45 | 136 | 1.7 | 4.3 | 0.04 | 0.39 | 0.25 | 92 | 1009.1 |
| 20260506151718 | 46 | 132 | 0.9 | 4.3 | 0.04 | 0.39 | 0.25 | 92 | 1009.0 |
| 20260506151220 | 46 | 153 | 0.9 | 4.3 | 0.03 | 0.39 | 0.24 | 92 | 1009.0 |
| 20260506150720 | 46 | 133 | 0.0 | 4.3 | 0.04 | 0.39 | 0.24 | 92 | 1009.0 |
| 20260506150218 | 46 | 142 | 0.9 | 5.2 | 0.04 | 0.39 | 0.24 | 92 | 1008.9 |
| 20260506145713 | 46 | 111 | 1.7 | 5.2 | 0.05 | 0.39 | 0.24 | 92 | 1008.9 |
| 20260506144718 | 46 | 131 | 0.9 | 3.5 | 0.04 | 0.41 | 0.23 | 92 | 1008.9 |
| 20260506144230 | 46 | 117 | 0.9 | 6.1 | 0.04 | 0.45 | 0.23 | 92 | 1008.8 |
| 20260506143722 | 46 | 115 | 1.7 | 6.1 | 0.04 | 0.50 | 0.22 | 91 | 1008.8 |
| 20260506143209 | 46 | 136 | 1.7 | 6.1 | 0.06 | 0.54 | 0.22 | 91 | 1008.9 |
| 20260506142718 | 46 | 67 | 0.9 | 8.7 | 0.06 | 0.54 | 0.22 | 91 | 1008.7 |
| 20260506142219 | 46 | 229 | 0.9 | 9.6 | 0.05 | 0.53 | 0.21 | 90 | 1008.8 |
| 20260506141718 | 46 | 151 | 2.6 | 9.6 | 0.06 | 0.53 | 0.21 | 90 | 1008.8 |
| 20260506141206 | 46 | 14 | 3.5 | 9.6 | 0.06 | 0.53 | 0.21 | 89 | 1008.7 |
| 20260506140716 | 47 | 110 | 1.7 | 7.0 | 0.05 | 0.52 | 0.20 | 90 | 1008.8 |
| 20260506140222 | 47 | 76 | 0.9 | 7.0 | 0.04 | 0.51 | 0.20 | 91 | 1008.6 |
| 20260506135729 | 47 | 166 | 0.9 | 9.6 | 0.05 | 0.51 | 0.20 | 91 | 1008.6 |
| 20260506135212 | 47 | 161 | 1.7 | 9.6 | 0.07 | 0.50 | 0.19 | 90 | 1008.6 |
| 20260506134712 | 47 | 334 | 2.6 | 9.6 | 0.08 | 0.50 | 0.19 | 91 | 1008.7 |
| 20260506134229 | 47 | 69 | 1.7 | 8.7 | 0.08 | 0.50 | 0.18 | 91 | 1008.6 |
| 20260506133725 | 47 | 95 | 0.9 | 7.0 | 0.07 | 0.49 | 0.17 | 91 | 1008.6 |
| 20260506132714 | 47 | 165 | 2.6 | 7.0 | 0.08 | 0.48 | 0.17 | 91 | 1008.6 |
| 20260506132217 | 47 | 152 | 3.5 | 10.4 | 0.09 | 0.48 | 0.17 | 91 | 1008.7 |
| 20260506131727 | 47 | 143 | 2.6 | 10.4 | 0.09 | 0.47 | 0.16 | 90 | 1008.7 |
| 20260506131221 | 47 | 22 | 3.5 | 11.3 | 0.09 | 0.47 | 0.16 | 90 | 1008.7 |
| 20260506130713 | 48 | 32 | 4.3 | 12.2 | 0.09 | 0.47 | 0.16 | 90 | 1008.6 |
| 20260506130221 | 48 | 126 | 6.1 | 12.2 | 0.09 | 0.46 | 0.15 | 91 | 1008.6 |
| 20260506125710 | 48 | 146 | 4.3 | 12.2 | 0.09 | 0.46 | 0.15 | 91 | 1008.5 |
| 20260506124721 | 49 | 108 | 0.9 | 6.1 | 0.06 | 0.43 | 0.10 | 91 | 1008.1 |
| 20260506124221 | 49 | 82 | 1.7 | 7.0 | 0.05 | 0.42 | 0.10 | 89 | 1008.0 |
| 20260506123711 | 49 | 311 | 2.6 | 7.0 | 0.05 | 0.41 | 0.09 | 90 | 1008.1 |
| 20260506123223 | 50 | 168 | 1.7 | 7.0 | 0.06 | 0.41 | 0.09 | 91 | 1007.9 |
| 20260506122721 | 50 | 97 | 0.0 | 5.2 | 0.04 | 0.39 | 0.08 | 92 | 1007.8 |
| 20260506121715 | 50 | 147 | 0.9 | 6.1 | 0.03 | 0.38 | 0.06 | 91 | 1007.8 |
| 20260506121227 | 50 | 156 | 1.7 | 6.1 | 0.03 | 0.38 | 0.06 | 90 | 1007.8 |
| 20260506120713 | 50 | 58 | 1.7 | 6.1 | 0.03 | 0.38 | 0.06 | 91 | 1007.8 |
| 20260506115722 | 50 | 124 | 1.7 | 4.3 | 0.04 | 0.38 | 0.06 | 92 | 1007.6 |
| 20260506115219 | 50 | 146 | 0.9 | 4.3 | 0.03 | 0.37 | 0.06 | 91 | 1007.6 |
| 20260506114725 | 50 | 159 | 0.9 | 4.3 | 0.03 | 0.37 | 0.06 | 92 | 1007.7 |
| 20260506114219 | 50 | 140 | 0.9 | 4.3 | 0.03 | 0.37 | 0.06 | 92 | 1007.6 |
| 20260506113221 | 50 | 169 | 0.0 | 4.3 | 0.02 | 0.35 | 0.04 | 91 | 1007.6 |
| 20260506112215 | 50 | 129 | 0.0 | 3.5 | 0.02 | 0.35 | 0.03 | 91 | 1007.6 |
| 20260506111727 | 50 | 163 | 0.0 | 3.5 | 0.02 | 0.35 | 0.03 | 91 | 1007.7 |
| 20260506111219 | 50 | 145 | 0.0 | 4.3 | 0.02 | 0.35 | 0.03 | 90 | 1007.7 |
| 20260506110719 | 50 | 155 | 0.9 | 6.1 | 0.02 | 0.35 | 0.03 | 90 | 1007.7 |
| 20260506105718 | 50 | 172 | 1.7 | 6.1 | 0.02 | 0.35 | 0.02 | 90 | 1007.8 |
| 20260506105216 | 50 | 171 | 1.7 | 6.1 | 0.02 | 0.35 | 0.02 | 91 | 1007.8 |
| 20260506104714 | 50 | 191 | 2.6 | 6.1 | 0.02 | 0.35 | 0.02 | 91 | 1007.7 |
| 20260506104217 | 50 | 163 | 0.9 | 3.5 | 0.02 | 0.35 | 0.02 | 91 | 1007.7 |
| 20260506103719 | 50 | 158 | 0.9 | 4.3 | 0.01 | 0.34 | 0.02 | 91 | 1007.7 |
| 20260506103220 | 50 | 158 | 0.9 | 4.3 | 0.01 | 0.34 | 0.02 | 90 | 1007.7 |
| 20260506102732 | 50 | 153 | 2.6 | 4.3 | 0.00 | 0.33 | 0.01 | 89 | 1007.7 |
| 20260506102219 | 51 | 164 | 1.7 | 4.3 | 0.00 | 0.33 | 0.01 | 89 | 1007.6 |
| 20260506101229 | 51 | 141 | 0.0 | 0.0 | 0.00 | 0.33 | 0.01 | 88 | 1007.6 |
| 20260506100707 | 51 | 136 | 0.0 | 0.0 | 0.00 | 0.33 | 0.01 | 88 | 1007.6 |
| 20260506100253 | 51 | 117 | 0.0 | 0.0 | 0.00 | 0.33 | 0.01 | 87 | 1007.6 |
| 20260506095709 | 51 | 160 | 0.0 | 0.0 | 0.00 | 0.33 | 0.01 | 87 | 1007.5 |
| 20260506094716 | 51 | 171 | 0.0 | 0.0 | 0.01 | 0.33 | 0.01 | 85 | 1007.5 |
| 20260506094208 | 51 | 173 | 0.0 | 0.0 | 0.01 | 0.33 | 0.01 | 85 | 1007.4 |
| 20260506093722 | 51 | 171 | 0.0 | 0.0 | 0.01 | 0.33 | 0.01 | 85 | 1007.4 |
| 20260506093221 | 51 | 152 | 0.0 | 0.0 | 0.01 | 0.33 | 0.01 | 85 | 1007.4 |
| 20260506092722 | 51 | 148 | 0.0 | 3.5 | 0.01 | 0.33 | 0.01 | 86 | 1007.4 |
| 20260506092209 | 51 | 104 | 0.0 | 3.5 | 0.01 | 0.33 | 0.01 | 86 | 1007.4 |
| 20260506091715 | 51 | 145 | 0.9 | 4.3 | 0.01 | 0.33 | 0.01 | 86 | 1007.5 |
| 20260506090725 | 51 | 188 | 0.9 | 0.0 | 0.01 | 0.33 | 0.01 | 86 | 1007.4 |
| 20260506090211 | 51 | 149 | 0.0 | 0.0 | 0.01 | 0.33 | 0.01 | 85 | 1007.4 |
| 20260506085709 | 51 | 151 | 0.0 | 0.0 | 0.01 | 0.33 | 0.01 | 85 | 1007.3 |
| 20260506085224 | 51 | 170 | 0.0 | 3.5 | 0.01 | 0.33 | 0.01 | 85 | 1007.3 |
| 20260506084221 | 52 | 180 | 0.0 | 3.5 | 0.00 | 0.32 | 0.00 | 84 | 1007.2 |
| 20260506083224 | 52 | 172 | 0.0 | 0.0 | 0.00 | 0.33 | 0.00 | 84 | 1007.1 |
| 20260506082717 | 52 | 169 | 0.0 | 0.0 | 0.00 | 0.33 | 0.00 | 84 | 1006.9 |
| 20260506081725 | 51 | 186 | 0.0 | 0.0 | 0.00 | 0.33 | 0.00 | 84 | 1006.8 |
| 20260506081217 | 51 | 161 | 0.0 | 0.0 | 0.00 | 0.33 | 0.00 | 85 | 1006.9 |
| 20260506080717 | 51 | 131 | 0.0 | 0.0 | 0.00 | 0.34 | 0.00 | 87 | 1006.9 |
| 20260506080216 | 51 | 333 | 0.0 | 0.0 | 0.00 | 0.34 | 0.00 | 88 | 1006.9 |
| 20260506073222 | 49 | 165 | 0.0 | 0.0 | 0.00 | 0.34 | 0.00 | 91 | 1007.2 |
| 20260506072713 | 49 | 172 | 0.0 | 0.0 | 0.00 | 0.34 | 0.00 | 92 | 1007.3 |
| 20260506072213 | 49 | 172 | 0.0 | 0.0 | 0.00 | 0.34 | 0.00 | 93 | 1007.2 |
| 20260506071727 | 49 | 160 | 0.0 | 0.0 | 0.00 | 0.34 | 0.00 | 93 | 1007.3 |
| 20260506071216 | 49 | 146 | 0.0 | 0.0 | 0.00 | 0.34 | 0.00 | 93 | 1007.2 |
| 20260506070711 | 49 | 126 | 0.0 | 0.0 | 0.00 | 0.34 | 0.00 | 94 | 1007.2 |
| 20260506070207 | 49 | 131 | 0.0 | 0.0 | 0.00 | 0.34 | 0.00 | 95 | 1007.2 |
| 20260506062221 | 47 | 144 | 0.0 | 0.0 | 0.00 | 0.34 | 0.00 | 95 | 1007.2 |
| 20260506061724 | 47 | 144 | 0.0 | 0.0 | 0.00 | 0.34 | 0.00 | 95 | 1007.3 |
| 20260506061214 | 47 | 144 | 0.0 | 0.0 | 0.00 | 0.34 | 0.00 | 95 | 1007.3 |
| 20260506060724 | 47 | 144 | 0.0 | 0.0 | 0.00 | 0.34 | 0.00 | 95 | 1007.3 |
| 20260506060225 | 47 | 67 | 0.0 | 0.0 | 0.00 | 0.34 | 0.00 | 95 | 1007.3 |
| 20260506051218 | 46 | 67 | 0.0 | 0.0 | 0.00 | 0.34 | 0.00 | 95 | 1007.3 |
| 20260506050212 | 46 | 285 | 0.0 | 0.0 | 0.00 | 0.34 | 0.00 | 95 | 1007.3 |
| 20260506044709 | 46 | 249 | 0.0 | 0.0 | 0.00 | 0.34 | 0.00 | 95 | 1007.6 |
| 20260506044218 | 46 | 249 | 0.0 | 0.0 | 0.00 | 0.34 | 0.00 | 95 | 1007.6 |
| 20260506043225 | 46 | 162 | 0.0 | 0.0 | 0.00 | 0.34 | 0.00 | 95 | 1007.6 |
| 20260506042729 | 46 | 319 | 0.0 | 0.0 | 0.00 | 0.34 | 0.00 | 95 | 1007.6 |
| 20260506042221 | 46 | 319 | 0.0 | 0.0 | 0.00 | 0.34 | 0.00 | 95 | 1007.6 |
| 20260506041724 | 46 | 319 | 0.0 | 0.0 | 0.00 | 0.34 | 0.00 | 95 | 1007.6 |
| 20260506040713 | 46 | 310 | 0.0 | 0.0 | 0.00 | 0.34 | 0.00 | 95 | 1007.6 |
| 20260506040218 | 46 | 311 | 0.0 | 0.0 | 0.00 | 0.34 | 0.00 | 95 | 1007.7 |
| 20260506035216 | 46 | 311 | 0.0 | 0.0 | 0.00 | 0.34 | 0.00 | 95 | 1007.9 |
| 20260506034722 | 46 | 111 | 0.0 | 0.0 | 0.00 | 0.34 | 0.00 | 95 | 1007.9 |
| 20260506033719 | 46 | 111 | 0.0 | 0.0 | 0.00 | 0.34 | 0.00 | 95 | 1007.9 |
| 20260506033223 | 46 | 100 | 0.0 | 0.0 | 0.00 | 0.34 | 0.00 | 95 | 1007.8 |
| 20260506032730 | 46 | 23 | 0.0 | 0.0 | 0.00 | 0.34 | 0.00 | 95 | 1007.9 |
| 20260506032228 | 46 | 23 | 0.0 | 0.0 | 0.00 | 0.34 | 0.00 | 95 | 1007.9 |
| 20260506031724 | 46 | 23 | 0.0 | 0.0 | 0.00 | 0.34 | 0.00 | 95 | 1007.9 |
| 20260506031220 | 46 | 23 | 0.0 | 0.0 | 0.00 | 0.34 | 0.00 | 95 | 1008.0 |
| 20260506030727 | 46 | 23 | 0.0 | 0.0 | 0.00 | 0.34 | 0.00 | 95 | 1007.9 |
| 20260506025715 | 46 | 23 | 0.0 | 0.0 | 0.00 | 0.34 | 0.00 | 95 | 1008.1 |
| 20260506024723 | 46 | 28 | 0.0 | 0.0 | 0.00 | 0.34 | 0.00 | 95 | 1008.1 |
| 20260506024211 | 46 | 30 | 0.0 | 0.0 | 0.00 | 0.34 | 0.00 | 95 | 1008.1 |
| 20260506023217 | 46 | 30 | 0.0 | 0.0 | 0.00 | 0.34 | 0.00 | 95 | 1008.4 |
| 20260506022706 | 46 | 0 | 0.0 | 0.0 | 0.00 | 0.34 | 0.00 | 95 | 1008.5 |
| 20260506022229 | 46 | 348 | 0.0 | 0.0 | 0.00 | 0.34 | 0.00 | 95 | 1008.4 |
| 20260506021725 | 46 | 342 | 0.0 | 0.0 | 0.00 | 0.34 | 0.00 | 95 | 1008.6 |
| 20260506021229 | 46 | 342 | 0.0 | 0.0 | 0.00 | 0.34 | 0.00 | 95 | 1008.6 |
| 20260506020730 | 46 | 103 | 0.0 | 0.0 | 0.00 | 0.34 | 0.00 | 95 | 1008.5 |
| 20260506020218 | 46 | 110 | 0.0 | 0.0 | 0.00 | 0.34 | 0.00 | 95 | 1008.5 |
| 20260506015225 | 46 | 5 | 0.0 | 0.0 | 0.00 | 0.34 | 0.00 | 95 | 1008.5 |
| 20260506014723 | 46 | 5 | 0.0 | 0.0 | 0.00 | 0.34 | 0.00 | 95 | 1008.5 |
| 20260506014230 | 46 | 5 | 0.0 | 0.0 | 0.00 | 0.34 | 0.00 | 95 | 1008.7 |
| 20260506013223 | 45 | 5 | 0.0 | 0.0 | 0.00 | 0.34 | 0.00 | 95 | 1008.9 |
| 20260506012730 | 45 | 5 | 0.0 | 0.0 | 0.00 | 0.34 | 0.00 | 95 | 1009.0 |
| 20260506011734 | 45 | 155 | 0.0 | 0.0 | 0.00 | 0.34 | 0.00 | 95 | 1009.1 |
| 20260506011214 | 45 | 155 | 0.0 | 0.0 | 0.00 | 0.34 | 0.00 | 95 | 1009.1 |
| 20260506010727 | 45 | 130 | 0.0 | 0.0 | 0.00 | 0.34 | 0.00 | 95 | 1009.2 |
| 20260506010215 | 45 | 43 | 0.0 | 0.0 | 0.00 | 0.34 | 0.00 | 94 | 1009.2 |
| 20260506005727 | 45 | 43 | 0.0 | 0.0 | 0.00 | 0.34 | 0.00 | 94 | 1009.1 |
| 20260506005232 | 45 | 43 | 0.0 | 0.0 | 0.00 | 0.34 | 0.00 | 94 | 1009.1 |
| 20260506004723 | 45 | 45 | 0.0 | 0.0 | 0.00 | 0.34 | 0.00 | 94 | 1009.1 |
| 20260506003718 | 45 | 151 | 0.0 | 0.0 | 0.00 | 0.34 | 0.00 | 94 | 1009.2 |
| 20260506002729 | 46 | 151 | 0.0 | 0.0 | 0.00 | 0.34 | 0.00 | 94 | 1009.3 |
| 20260506002213 | 46 | 150 | 0.0 | 0.0 | 0.00 | 0.34 | 0.00 | 94 | 1009.2 |
| 20260506001711 | 46 | 150 | 0.0 | 0.0 | 0.00 | 0.34 | 0.00 | 94 | 1009.2 |
| 20260506001227 | 46 | 150 | 0.0 | 0.0 | 0.00 | 0.34 | 0.00 | 94 | 1009.3 |
| 20260506000728 | 46 | 61 | 0.0 | 0.0 | 0.00 | 0.34 | 0.00 | 94 | 1009.4 |
| 20260506000211 | 46 | 355 | 0.0 | 0.0 | 0.00 | 0.34 | 0.00 | 94 | 1009.4 |
| 20260505235718 | 46 | 355 | 0.0 | 0.0 | 0.00 | 0.34 | 0.00 | 94 | 1009.5 |
| 20260505235206 | 46 | 355 | 0.0 | 0.0 | 0.00 | 0.34 | 0.00 | 94 | 1009.5 |
| 20260505234734 | 46 | 355 | 0.0 | 0.0 | 0.00 | 0.34 | 0.00 | 94 | 1009.8 |
| 20260505234209 | 46 | 355 | 0.0 | 0.0 | 0.00 | 0.34 | 0.00 | 94 | 1009.7 |
| 20260505233722 | 46 | 355 | 0.0 | 0.0 | 0.00 | 0.34 | 0.00 | 94 | 1009.8 |
| 20260505232723 | 46 | 355 | 0.0 | 0.0 | 0.00 | 0.34 | 0.00 | 94 | 1009.8 |
| 20260505232231 | 46 | 355 | 0.0 | 0.0 | 0.00 | 0.34 | 0.00 | 94 | 1009.8 |
| 20260505231711 | 46 | 355 | 0.0 | 0.0 | 0.00 | 0.34 | 0.00 | 94 | 1009.9 |
| 20260505231223 | 46 | 92 | 0.0 | 0.0 | 0.00 | 0.34 | 0.00 | 94 | 1009.9 |
| 20260505230720 | 46 | 93 | 0.0 | 0.0 | 0.00 | 0.34 | 0.00 | 94 | 1010.1 |
| 20260505230208 | 47 | 87 | 0.0 | 0.0 | 0.00 | 0.34 | 0.00 | 94 | 1010.1 |
| 20260505225719 | 47 | 88 | 0.0 | 0.0 | 0.00 | 0.34 | 0.00 | 94 | 1010.1 |
| 20260505225219 | 47 | 88 | 0.0 | 0.0 | 0.00 | 0.34 | 0.00 | 94 | 1010.0 |
| 20260505224715 | 47 | 87 | 0.0 | 0.0 | 0.00 | 0.34 | 0.00 | 94 | 1010.0 |
| 20260505224226 | 47 | 87 | 0.0 | 0.0 | 0.00 | 0.34 | 0.00 | 94 | 1009.9 |
| 20260505223724 | 47 | 115 | 0.0 | 0.0 | 0.00 | 0.34 | 0.00 | 94 | 1010.0 |
| 20260505222711 | 48 | 325 | 0.0 | 0.0 | 0.00 | 0.34 | 0.00 | 94 | 1010.0 |
| 20260505222226 | 48 | 325 | 0.0 | 0.0 | 0.00 | 0.34 | 0.00 | 94 | 1010.0 |
| 20260505221721 | 48 | 325 | 0.0 | 0.0 | 0.00 | 0.34 | 0.00 | 94 | 1010.0 |
| 20260505221225 | 48 | 325 | 0.0 | 0.0 | 0.00 | 0.34 | 0.00 | 94 | 1010.1 |
| 20260505220718 | 48 | 325 | 0.0 | 0.0 | 0.00 | 0.34 | 0.00 | 94 | 1010.1 |
| 20260505220215 | 48 | 188 | 0.0 | 0.0 | 0.00 | 0.34 | 0.34 | 94 | 1010.1 |
| 20260505215229 | 48 | 187 | 0.0 | 0.0 | 0.00 | 0.34 | 0.34 | 94 | 1010.2 |
| 20260505214714 | 48 | 180 | 0.0 | 0.0 | 0.00 | 0.34 | 0.34 | 94 | 1010.2 |
| 20260505213221 | 48 | 158 | 0.0 | 0.0 | 0.00 | 0.34 | 0.34 | 94 | 1010.2 |
| 20260505212725 | 48 | 147 | 0.0 | 0.0 | 0.00 | 0.34 | 0.34 | 94 | 1010.3 |
| 20260505212217 | 49 | 173 | 0.0 | 0.0 | 0.00 | 0.34 | 0.34 | 94 | 1010.3 |
| 20260505211707 | 49 | 173 | 0.0 | 0.0 | 0.00 | 0.34 | 0.34 | 93 | 1010.4 |
| 20260505211234 | 49 | 121 | 0.0 | 0.0 | 0.00 | 0.34 | 0.34 | 93 | 1010.2 |
| 20260505210232 | 49 | 257 | 0.0 | 0.0 | 0.00 | 0.34 | 0.34 | 93 | 1010.2 |
| 20260505205728 | 49 | 257 | 0.0 | 0.0 | 0.00 | 0.34 | 0.34 | 93 | 1010.2 |
| 20260505205218 | 49 | 140 | 0.0 | 0.0 | 0.00 | 0.34 | 0.34 | 93 | 1010.2 |
| 20260505204720 | 49 | 153 | 0.0 | 0.0 | 0.00 | 0.34 | 0.34 | 93 | 1010.2 |
| 20260505204215 | 49 | 137 | 0.0 | 0.0 | 0.00 | 0.34 | 0.34 | 93 | 1010.3 |
| 20260505203725 | 49 | 254 | 0.0 | 0.0 | 0.00 | 0.34 | 0.34 | 93 | 1010.2 |
| 20260505203214 | 49 | 255 | 0.0 | 0.0 | 0.00 | 0.34 | 0.34 | 93 | 1010.2 |
| 20260505202718 | 49 | 255 | 0.0 | 0.0 | 0.00 | 0.34 | 0.34 | 93 | 1010.2 |
| 20260505202222 | 49 | 234 | 0.0 | 0.0 | 0.00 | 0.34 | 0.34 | 93 | 1010.2 |
| 20260505201735 | 49 | 234 | 0.0 | 0.0 | 0.00 | 0.34 | 0.34 | 93 | 1010.1 |
| 20260505201213 | 49 | 235 | 0.0 | 0.0 | 0.00 | 0.34 | 0.34 | 93 | 1010.0 |
| 20260505200730 | 49 | 234 | 0.0 | 0.0 | 0.00 | 0.34 | 0.34 | 93 | 1010.0 |
| 20260505195728 | 49 | 234 | 0.0 | 0.0 | 0.00 | 0.34 | 0.34 | 92 | 1009.9 |
| 20260505195214 | 49 | 234 | 0.0 | 0.0 | 0.00 | 0.34 | 0.34 | 92 | 1009.8 |
| 20260505194721 | 49 | 348 | 0.0 | 0.0 | 0.00 | 0.34 | 0.34 | 92 | 1009.8 |
| 20260505194216 | 49 | 181 | 0.0 | 0.0 | 0.00 | 0.34 | 0.34 | 92 | 1009.9 |
| 20260505193217 | 50 | 188 | 0.0 | 0.0 | 0.00 | 0.34 | 0.34 | 91 | 1009.7 |
| 20260505192725 | 50 | 188 | 0.0 | 0.0 | 0.00 | 0.34 | 0.34 | 91 | 1009.7 |
| 20260505192217 | 50 | 132 | 0.0 | 0.0 | 0.01 | 0.34 | 0.34 | 91 | 1009.5 |
| 20260505191713 | 50 | 115 | 0.0 | 0.0 | 0.01 | 0.34 | 0.34 | 91 | 1009.8 |
| 20260505191211 | 50 | 115 | 0.0 | 0.0 | 0.02 | 0.34 | 0.34 | 91 | 1009.8 |
| 20260505190713 | 50 | 115 | 0.0 | 0.0 | 0.02 | 0.34 | 0.34 | 90 | 1009.7 |
| 20260505190222 | 50 | 115 | 0.0 | 0.0 | 0.04 | 0.34 | 0.34 | 91 | 1009.5 |
| 20260505185726 | 50 | 115 | 0.0 | 0.0 | 0.05 | 0.34 | 0.34 | 90 | 1009.5 |
| 20260505185213 | 50 | 115 | 0.0 | 4.3 | 0.07 | 0.34 | 0.34 | 90 | 1009.4 |
| 20260505184228 | 51 | 96 | 0.9 | 6.1 | 0.14 | 0.34 | 0.34 | 90 | 1009.4 |
| 20260505183713 | 51 | 164 | 0.9 | 6.1 | 0.14 | 0.34 | 0.34 | 90 | 1009.4 |
| 20260505183226 | 51 | 146 | 0.9 | 4.3 | 0.14 | 0.34 | 0.34 | 90 | 1009.5 |
| 20260505182728 | 51 | 136 | 1.7 | 4.3 | 0.13 | 0.33 | 0.33 | 90 | 1009.5 |
| 20260505182213 | 51 | 131 | 0.9 | 4.3 | 0.13 | 0.33 | 0.33 | 89 | 1009.3 |
| 20260505181714 | 51 | 142 | 0.9 | 4.3 | 0.13 | 0.32 | 0.32 | 89 | 1009.4 |
| 20260505181214 | 51 | 139 | 0.0 | 7.0 | 0.12 | 0.31 | 0.31 | 88 | 1009.7 |
| 20260505180729 | 51 | 140 | 0.9 | 8.7 | 0.12 | 0.31 | 0.31 | 87 | 1009.5 |
| 20260505180221 | 52 | 113 | 0.9 | 8.7 | 0.10 | 0.30 | 0.30 | 86 | 1009.5 |
| 20260505175214 | 53 | 40 | 0.9 | 2.6 | 0.06 | 0.25 | 0.25 | 86 | 1009.3 |
| 20260505174723 | 53 | 339 | 0.0 | 0.0 | 0.00 | 0.20 | 0.20 | 87 | 1009.4 |
| 20260505174221 | 53 | 161 | 0.0 | 0.0 | 0.00 | 0.20 | 0.20 | 86 | 1009.0 |
| 20260505173707 | 53 | 159 | 0.0 | 3.5 | 0.00 | 0.20 | 0.20 | 85 | 1009.0 |
| 20260505173223 | 53 | 162 | 0.0 | 3.5 | 0.00 | 0.20 | 0.20 | 85 | 1009.0 |
| 20260505172713 | 53 | 154 | 0.0 | 3.5 | 0.00 | 0.20 | 0.20 | 85 | 1009.0 |
| 20260505171711 | 53 | 138 | 0.0 | 2.6 | 0.00 | 0.20 | 0.20 | 85 | 1009.0 |
| 20260505170713 | 54 | 113 | 0.0 | 2.6 | 0.00 | 0.21 | 0.20 | 86 | 1008.9 |
| 20260505170207 | 54 | 139 | 0.0 | 2.6 | 0.00 | 0.21 | 0.20 | 86 | 1009.0 |
| 20260505165726 | 53 | 140 | 0.0 | 0.0 | 0.00 | 0.22 | 0.20 | 86 | 1009.0 |
| 20260505165212 | 53 | 186 | 0.0 | 0.0 | 0.00 | 0.22 | 0.20 | 86 | 1009.0 |
| 20260505164715 | 53 | 133 | 0.0 | 0.0 | 0.00 | 0.23 | 0.20 | 87 | 1009.0 |